CW7186 Weather Reports


time (UTC)temp
C
wind
direction
speed
KPH
gust
KPH
rain 1hr
cm
rain 24hr
cm
rain mn
cm
humidity
%
barometer
mb
20260506161557 20 222 8.0 25.7 0.00 0.00 0.00 68 1008.7
20260506160103 20 215 4.8 25.7 0.00 0.00 0.00 67 1009.1
20260506154557 20 283 9.7 27.4 0.00 0.00 0.00 65 1008.8
20260506153100 21 247 8.0 25.7 0.00 0.00 0.00 61 1008.9
20260506151600 21 205 6.4 24.1 0.00 0.00 0.00 59 1008.8
20260506150058 21 261 8.0 29.0 0.00 0.00 0.00 59 1008.9
20260506144607 21 0 8.0 25.7 0.00 0.00 0.00 59 1009.0
20260506143053 21 222 6.4 27.4 0.00 0.00 0.00 59 1009.0
20260506141553 21 215 4.8 30.6 0.00 0.00 0.00 59 1008.8
20260506140054 21 256 6.4 17.7 0.00 0.00 0.00 60 1008.9
20260506134555 21 261 4.8 22.5 0.00 0.00 0.00 61 1008.8
20260506133100 21 283 3.2 24.1 0.00 0.00 0.00 60 1008.8
20260506131557 21 207 9.7 25.7 0.00 0.00 0.00 61 1009.1
20260506130054 21 203 6.4 24.1 0.00 0.00 0.00 63 1009.2
20260506124551 20 225 9.7 27.4 0.00 0.00 0.00 64 1009.2
20260506123054 20 224 6.4 24.1 0.00 0.00 0.00 67 1009.0
20260506121553 19 273 3.2 20.9 0.00 0.00 0.00 69 1009.2
20260506120056 19 215 6.4 16.1 0.00 0.00 0.00 69 1009.2
20260506114558 18 232 4.8 24.1 0.00 0.00 0.00 69 1009.4
20260506113054 19 225 8.0 29.0 0.00 0.00 0.00 68 1009.4
20260506111557 18 144 4.8 22.5 0.00 0.00 0.00 70 1009.5
20260506110055 18 248 8.0 24.1 0.00 0.00 0.00 71 1009.4
20260506104559 18 181 8.0 19.3 0.00 0.00 0.00 72 1009.3
20260506103055 17 187 4.8 19.3 0.00 0.00 0.00 74 1009.3
20260506101601 17 0 3.2 14.5 0.00 0.00 0.00 75 1009.4
20260506100107 17 217 6.4 17.7 0.00 0.00 0.00 75 1009.2
20260506094615 17 211 1.6 24.1 0.00 0.00 0.00 75 1009.2
20260506093103 17 187 4.8 14.5 0.00 0.00 0.00 75 1009.0
20260506091604 17 184 4.8 16.1 0.00 0.00 0.00 75 1009.2
20260506084557 18 184 3.2 17.7 0.00 0.00 0.00 75 1009.5
20260506083103 18 0 3.2 12.9 0.00 0.00 0.00 75 1009.5
20260506081556 18 205 3.2 14.5 0.00 0.00 0.00 74 1009.6
20260506080109 18 0 3.2 11.3 0.00 0.00 0.00 74 1009.6
20260506073108 18 205 1.6 22.5 0.00 0.00 0.00 73 1009.5
20260506071552 18 223 6.4 17.7 0.00 0.00 0.00 72 1009.5
20260506061601 19 183 6.4 20.9 0.00 0.00 0.00 70 1009.6
20260506044553 20 261 4.8 19.3 0.00 0.00 0.00 66 1010.0
20260506043052 20 229 4.8 17.7 0.00 0.00 0.00 65 1010.0
20260506041556 20 223 3.2 17.7 0.00 0.00 0.00 64 1009.9
20260506040055 20 214 9.7 27.4 0.00 0.00 0.00 63 1009.9
20260506034554 20 175 8.0 19.3 0.00 0.00 0.00 63 1009.8
20260506033106 20 197 4.8 24.1 0.00 0.00 0.00 63 1009.9
20260506031555 20 219 6.4 20.9 0.00 0.00 0.00 62 1009.8
20260506030059 20 217 6.4 17.7 0.00 0.00 0.00 62 1009.8
20260506024608 20 190 6.4 24.1 0.00 0.00 0.00 61 1009.8
20260506023102 20 0 6.4 19.3 0.00 0.00 0.00 59 1009.9
20260506021559 21 200 8.0 20.9 0.00 0.00 0.00 58 1010.0
20260506020100 21 221 4.8 30.6 0.00 0.00 0.00 57 1009.9
20260506014555 21 233 6.4 20.9 0.00 0.00 0.00 56 1009.8
20260506013101 21 213 6.4 17.7 0.00 0.00 0.00 55 1009.5
20260506011621 22 202 6.4 19.3 0.00 0.00 0.00 54 1009.5
20260506010115 22 217 8.0 22.5 0.00 0.00 0.00 53 1009.4
20260506004554 22 269 11.3 24.1 0.00 0.00 0.00 52 1009.4
20260506003057 23 161 9.7 27.4 0.00 0.00 0.00 50 1009.3
20260506001601 23 249 8.0 20.9 0.00 0.00 0.00 48 1009.2
20260506000100 23 182 4.8 20.9 0.00 0.00 0.00 46 1009.0
20260505234556 24 162 4.8 24.1 0.00 0.00 0.00 43 1008.8
20260505233056 25 196 4.8 27.4 0.00 0.00 0.00 40 1008.7
20260505231557 26 202 8.0 30.6 0.00 0.00 0.00 38 1008.7
20260505224558 27 201 14.5 29.0 0.00 0.00 0.00 36 1008.2
20260505223100 27 232 9.7 40.2 0.00 0.00 0.00 35 1008.0
20260505221604 27 290 6.4 25.7 0.00 0.00 0.00 34 1007.8
20260505220108 27 219 8.0 33.8 0.00 0.00 0.00 34 1007.8
20260505214602 28 222 11.3 35.4 0.00 0.00 0.00 32 1007.8
20260505213057 28 240 8.0 33.8 0.00 0.00 0.00 31 1007.7
20260505211602 28 100 11.3 32.2 0.00 0.00 0.00 31 1007.5
20260505210103 28 99 9.7 45.1 0.00 0.00 0.00 32 1007.2
20260505204612 28 286 9.7 33.8 0.00 0.00 0.00 31 1007.3
20260505203052 28 188 12.9 33.8 0.00 0.00 0.00 31 1007.5
20260505201553 28 260 6.4 41.8 0.00 0.00 0.00 33 1007.6
20260505200054 28 226 16.1 43.5 0.00 0.00 0.00 32 1007.5
20260505194600 28 205 11.3 32.2 0.00 0.00 0.00 33 1007.6
20260505193054 28 256 14.5 33.8 0.00 0.00 0.00 34 1007.9
20260505191554 28 179 11.3 35.4 0.00 0.00 0.00 32 1007.9
20260505190056 28 248 11.3 37.0 0.00 0.00 0.00 33 1008.3
20260505184555 28 253 14.5 33.8 0.00 0.00 0.00 34 1008.4
20260505183057 28 190 8.0 30.6 0.00 0.00 0.00 36 1008.3
20260505181555 28 170 8.0 25.7 0.00 0.00 0.00 34 1008.7
20260505180055 28 326 8.0 25.7 0.00 0.00 0.00 38 1008.8
20260505174557 28 227 6.4 27.4 0.00 0.00 0.00 36 1009.1
20260505173053 27 0 4.8 22.5 0.00 0.00 0.00 40 1009.0
20260505171600 28 206 4.8 20.9 0.00 0.00 0.00 37 1009.4
20260505170055 27 290 6.4 17.7 0.00 0.00 0.00 39 1009.4
20260505164602 27 217 4.8 24.1 0.00 0.00 0.00 39 1009.5
20260505163054 26 207 6.4 24.1 0.00 0.00 0.00 42 1009.5